Weather Roundup
Issued by NWS Springfield, MO

Home | Current Version | Previous Version | Text Only | Print | Product List | Glossary On
Versions: 1 2 3 4 5 6 7 8 9 10 11 12 13 14 15 16 17 18 19 20 21 22 23 24 25 26 27 28 29 30 31 32 33 34 35 36 37 38 39 40 41 42 43 44 45 46 47 48 49 50
000
NZUS99 KSGF 170057
HRRSGF

HOURLY WEATHER
NATIONAL WEATHER SERVICE SPRINGFIELD MO
800 PM CDT MON OCT 16 2017

......SGF CWA......

CITY           SKY/WX    TMP DP  RH WIND       PRES   REMARKS
SPRINGFIELD    CLEAR     50  41  71 CALM      30.29R
JOPLIN         CLEAR     51  45  79 CALM      30.30R
WEST PLAINS    CLEAR     49  39  68 CALM      30.32R
ROLLA          CLEAR     49  41  74 CALM      30.30S
BRANSON        CLEAR     54  36  50 CALM      30.31R

......SURROUNDING SGF CWA......

CITY           SKY/WX    TMP DP  RH WIND       PRES   REMARKS
CHANUTE        CLEAR     51  43  74 S6        30.28S
PARSONS        CLEAR     50  44  80 CALM      30.29S
COFFEYVILLE    CLEAR     55  44  66 S3        30.28S
EMPORIA        CLEAR     53  40  61 S8        30.24S
HARRISON AR    CLEAR     52  37  56 CALM      30.32R

......KANSAS AND MISSOURI......

CITY           SKY/WX    TMP DP  RH WIND       PRES   REMARKS
KANSAS CTY INT PTCLDY    50  42  74 S10       30.23S
SEDALIA        CLEAR     57  43  59 S6        30.29R
ST JOSEPH      CLEAR     56  43  61 S6        30.21R
ST LOUIS       CLEAR     56  42  59 S5        30.29R
WICHITA        PTCLDY    58  41  53 S12       30.24R
TOPEKA         CLEAR     58  43  57 S3        30.22S
OLATHE         CLEAR     55  41  59 S6        30.25S

......TENNESSEE......

CITY           SKY/WX    TMP DP  RH WIND       PRES   REMARKS
MEMPHIS        NOT AVBL
NASHVILLE      CLEAR     55  42  61 N9        30.30R

......ARKANSAS.......

CITY           SKY/WX    TMP DP  RH WIND       PRES   REMARKS
FAYETTEVILLE   CLEAR     49  44  83 CALM      30.31R
FT SMITH       CLEAR     60  43  53 CALM      30.29R
LITTLE ROCK    CLEAR     55  42  61 NE5       30.30S

......OKLAHOMA.......

CITY           SKY/WX    TMP DP  RH WIND       PRES   REMARKS
TULSA          CLEAR     59  44  57 S3        30.29R
MCALESTER      PTCLDY    53  48  83 CALM      30.30R
OKLAHOMA CITY  PTCLDY    54  42  64 SE7       30.28S

......IOWA............

CITY           SKY/WX    TMP DP  RH WIND       PRES   REMARKS
DES MOINES     NOT AVBL
QUAD CITIES    CLEAR     52  38  58 S7        30.20F

......ILLINOIS........

CITY           SKY/WX    TMP DP  RH WIND       PRES   REMARKS
QUINCY         CLEAR     56  36  47 S6        30.25R
CHICAGO        CLEAR     55  37  50 SW5       30.21S




USA.gov is the U.S. government's official web portal to all federal, state and local government web resources and services.